period_start,C,m1,H,J0,J1,J2,J3,J4,J5,JA,JB,JC,JD,JJ,JK,JN,#
2017-05-09 00:00:08,0.03,0.19,0.00,23.75,26.80,30.28,14.32,48.43,1010.29,2032.96,3441.50,3048.99,3492.19,599.98,590.83,6.58,0000 0000 0000 0000 000000
2017-05-09 00:05:09,0.04,0.19,0.00,23.85,26.82,30.32,14.33,48.38,1010.29,2032.95,3440.79,3048.33,3491.64,599.97,590.67,6.63,0000 0000 0000 0000 000000
2017-05-09 00:10:10,0.01,0.19,0.00,23.91,26.84,30.36,14.42,48.38,1010.30,2032.93,3440.02,3048.00,3491.02,600.06,590.55,6.68,0000 0000 0000 0000 000000
2017-05-09 00:15:11,0.04,0.19,0.00,24.03,26.85,30.39,14.39,48.39,1010.31,2032.86,3439.27,3047.44,3490.34,600.02,590.31,6.73,0000 0000 0000 0000 000000
2017-05-09 00:20:12,0.01,0.19,0.00,24.03,26.86,30.41,14.41,48.42,1010.30,2032.83,3438.60,3047.00,3489.89,599.98,590.22,6.78,0000 0000 0000 0000 000000
2017-05-09 00:25:14,0.03,0.19,0.00,24.09,26.87,30.42,14.38,48.38,1010.31,2032.64,3437.85,3046.40,3489.09,600.06,590.29,6.83,0000 0000 0000 0000 000000
2017-05-09 00:30:15,0.02,0.19,0.00,24.07,26.87,30.40,14.32,48.35,1010.30,2032.59,3437.06,3046.01,3488.70,600.04,590.28,6.88,0000 0000 0000 0000 000000
2017-05-09 00:35:16,0.02,0.19,0.00,23.94,26.87,30.39,14.35,48.48,1010.31,2032.47,3436.33,3045.59,3488.02,599.76,590.14,6.93,0000 0000 0000 0000 000000
2017-05-09 00:40:17,0.02,0.20,0.00,23.57,26.86,30.37,14.37,48.57,1010.29,2032.34,3435.65,3045.01,3487.57,600.12,591.27,6.98,0000 0000 0000 0000 000000
2017-05-09 00:45:18,0.00,0.20,0.00,23.39,26.85,30.54,14.47,48.73,1010.28,2032.18,3434.96,3044.79,3486.99,599.88,591.49,7.03,0000 0000 0000 0000 000000
2017-05-09 00:50:19,0.08,0.20,0.00,23.32,26.83,30.55,14.50,48.72,1010.28,2032.36,3434.10,3044.05,3486.16,600.19,591.81,7.08,0000 0000 0000 0000 000000
2017-05-09 00:55:20,0.01,0.20,0.00,23.30,26.82,30.45,14.29,48.41,1010.28,2032.57,3433.60,3043.93,3485.97,599.43,591.12,7.13,0000 0000 0000 0000 000000
2017-05-09 01:00:21,0.06,0.20,0.00,23.30,26.80,30.40,14.43,48.55,1010.28,2032.78,3432.98,3043.16,3485.24,599.86,591.55,7.18,0000 0000 0000 0000 000000
2017-05-09 01:05:23,0.02,0.20,0.00,23.60,26.80,30.37,14.35,48.48,1010.31,2032.75,3432.18,3042.99,3484.98,599.96,591.09,7.23,0000 0000 0000 0000 000000
2017-05-09 01:10:24,0.04,0.21,0.00,23.55,26.80,30.18,14.36,48.57,1010.42,2032.81,3431.82,3042.49,3484.26,599.91,591.19,7.28,0000 0000 0000 0000 000000
2017-05-09 01:15:25,0.02,0.21,0.00,23.68,26.80,30.17,14.36,48.71,1010.61,2032.77,3431.04,3042.00,3483.87,600.35,591.43,7.33,0000 0000 0000 0000 000000
2017-05-09 01:20:26,0.01,0.21,0.00,23.94,26.82,30.24,14.44,48.64,1010.58,2032.50,3430.22,3041.34,3483.06,600.02,590.63,7.38,0000 0000 0000 0000 000000
2017-05-09 01:25:28,0.00,0.21,0.00,24.05,26.83,30.27,14.36,48.63,1010.53,2032.16,3429.49,3040.99,3482.37,599.94,590.41,7.43,0000 0000 0000 0000 000000
2017-05-09 01:30:29,0.02,0.21,0.00,24.10,26.85,30.31,14.38,48.49,1010.45,2032.10,3428.93,3040.38,3481.98,599.87,590.18,7.48,0000 0000 0000 0000 000000
2017-05-09 01:35:30,0.03,0.21,0.00,24.12,26.85,30.34,14.39,48.57,1010.45,2032.07,3428.12,3040.00,3481.25,599.76,589.95,7.53,0000 0000 0000 0000 000000
2017-05-09 01:40:32,0.01,0.21,0.00,24.18,26.87,30.33,14.41,48.67,1010.44,2032.06,3427.62,3039.83,3480.96,599.90,589.91,7.58,0000 0000 0000 0000 000000
2017-05-09 01:45:33,0.03,0.21,0.00,24.21,26.87,30.36,14.28,48.56,1010.39,2032.01,3426.99,3039.05,3480.17,599.88,589.91,7.63,0000 0000 0000 0000 000000
2017-05-09 01:50:34,0.02,0.22,0.00,24.26,26.87,30.38,14.36,48.59,1010.46,2032.01,3426.30,3038.88,3479.99,600.03,589.93,7.68,0000 0000 0000 0000 000000
2017-05-09 01:55:36,0.04,0.22,0.00,24.28,26.87,30.37,14.31,48.55,1010.45,2032.01,3425.83,3038.09,3479.28,600.16,590.07,7.73,0000 0000 0000 0000 000000
2017-05-09 02:00:37,0.01,0.22,0.00,24.30,26.87,30.35,14.33,48.58,1010.37,2032.01,3425.06,3037.96,3478.96,600.07,589.94,7.78,0000 0000 0000 0000 000000
2017-05-09 02:05:39,0.04,0.22,0.00,24.31,26.87,30.34,14.35,48.66,1010.35,2032.02,3424.57,3037.38,3478.26,600.02,589.88,7.83,0000 0000 0000 0000 000000
2017-05-09 02:10:40,0.01,0.22,0.00,24.35,26.87,30.32,14.31,48.64,1010.43,2032.00,3423.98,3037.00,3477.98,599.84,589.37,7.88,0000 0000 0000 0000 000000
2017-05-09 02:15:41,0.03,0.22,0.00,24.36,26.88,30.33,14.35,48.63,1010.38,2032.01,3423.19,3036.77,3477.30,599.92,589.60,7.93,0000 0000 0000 0000 000000
2017-05-09 02:20:42,0.02,0.22,0.00,24.38,26.88,30.34,14.32,48.58,1010.45,2032.01,3422.82,3036.12,3477.00,599.88,589.55,7.98,0000 0000 0000 0000 000000
2017-05-09 02:25:44,0.01,0.22,0.00,24.39,26.87,30.32,14.34,48.62,1010.39,2032.00,3422.07,3035.99,3476.68,600.19,589.90,8.03,0000 0000 0000 0000 000000
2017-05-09 02:30:46,0.03,0.23,0.00,24.40,26.88,30.29,14.29,48.53,1010.34,2032.00,3421.61,3035.67,3476.03,599.89,589.48,8.08,0000 0000 0000 0000 000000
2017-05-09 02:35:47,0.02,0.23,0.00,24.40,26.88,30.29,14.29,48.59,1010.43,2032.00,3421.01,3035.05,3475.88,600.10,589.75,8.13,0000 0000 0000 0000 000000
2017-05-09 02:40:48,0.02,0.23,0.00,24.40,26.88,30.29,14.28,48.59,1010.38,2032.00,3420.44,3034.98,3475.13,599.98,589.61,8.18,0000 0000 0000 0000 000000
2017-05-09 02:45:49,0.02,0.23,0.00,24.43,26.89,30.28,14.29,48.58,1010.36,2032.00,3419.99,3034.49,3474.98,600.14,589.63,8.23,0000 0000 0000 0000 000000
2017-05-09 02:50:50,0.03,0.23,0.00,24.38,26.89,30.27,14.41,48.67,1010.33,2032.00,3419.36,3034.01,3474.36,600.41,589.92,8.28,0000 0000 0000 0000 000000
2017-05-09 02:55:52,0.00,0.23,0.00,24.38,26.90,30.28,14.35,48.54,1010.42,2032.00,3418.99,3033.98,3474.01,600.41,590.04,8.33,0000 0000 0000 0000 000000
2017-05-09 03:00:53,0.03,0.23,0.00,24.43,26.90,30.26,14.28,48.55,1010.49,2032.00,3418.27,3033.47,3473.85,599.95,589.61,8.38,0000 0000 0000 0000 000000
2017-05-09 03:05:55,0.02,0.24,0.00,24.43,26.90,30.27,14.29,48.56,1010.56,2032.00,3417.87,3033.01,3473.08,600.03,589.73,8.43,0000 0000 0000 0000 000000
2017-05-09 03:10:56,0.02,0.24,0.00,24.41,26.90,30.26,14.27,48.53,1010.57,2032.00,3417.11,3032.86,3472.83,599.85,589.47,8.48,0000 0000 0000 0000 000000
2017-05-09 03:15:57,0.04,0.24,0.00,24.41,26.90,30.26,14.35,48.54,1010.62,2032.00,3416.56,3032.09,3472.07,600.24,589.74,8.53,0000 0000 0000 0000 000000
2017-05-09 03:20:58,0.00,0.24,0.00,24.44,26.90,30.26,14.34,48.54,1010.68,2032.00,3415.98,3031.99,3471.89,599.97,589.66,8.58,0000 0000 0000 0000 000000
2017-05-09 03:26:00,0.04,0.24,0.00,24.49,26.92,30.26,14.26,48.58,1010.60,2032.00,3415.24,3031.55,3471.14,600.03,589.66,8.64,0000 0000 0000 0000 000000
2017-05-09 03:31:01,0.02,0.24,0.00,24.47,26.92,30.26,14.34,48.61,1010.64,2032.00,3414.80,3031.01,3470.87,600.06,589.65,8.69,0000 0000 0000 0000 000000
2017-05-09 03:36:02,0.02,0.24,0.00,24.40,26.92,30.24,14.29,48.57,1010.57,2032.00,3414.05,3030.85,3470.14,600.23,589.88,8.74,0000 0000 0000 0000 000000
2017-05-09 03:41:04,0.03,0.24,0.00,24.47,26.92,30.25,14.34,48.69,1010.59,2032.00,3413.40,3030.08,3469.86,599.98,589.42,8.79,0000 0000 0000 0000 000000
2017-05-09 03:46:05,0.01,0.25,0.00,24.47,26.94,30.25,14.32,48.60,1010.66,2032.00,3412.92,3029.96,3469.10,600.10,589.61,8.84,0000 0000 0000 0000 000000
2017-05-09 03:51:06,0.04,0.25,0.00,24.48,26.95,30.25,14.28,48.67,1010.72,2032.00,3412.10,3029.32,3468.94,599.97,589.61,8.89,0000 0000 0000 0000 000000
2017-05-09 03:56:07,0.02,0.25,0.00,24.45,26.95,30.26,14.23,48.60,1010.73,2032.00,3411.44,3029.00,3468.14,599.75,589.50,8.94,0000 0000 0000 0000 000000
2017-05-09 04:01:09,0.03,0.25,0.00,24.46,26.95,30.26,14.32,48.66,1010.69,2031.99,3410.75,3028.42,3467.76,600.18,589.83,8.99,0000 0000 0000 0000 000000
2017-05-09 04:06:09,0.02,0.25,0.00,24.47,26.96,30.27,14.32,48.66,1010.72,2031.98,3409.92,3028.00,3467.02,599.82,589.44,9.04,0000 0000 0000 0000 000000
2017-05-09 04:11:11,0.05,0.25,0.00,24.45,26.97,30.29,14.29,48.65,1010.75,2031.97,3409.05,3027.28,3466.28,600.04,589.74,9.09,0000 0000 0000 0000 000000
2017-05-09 04:16:12,0.02,0.26,0.00,24.50,26.97,30.26,14.43,48.73,1010.76,2031.97,3408.21,3026.96,3465.76,599.94,589.56,9.14,0000 0000 0000 0000 000000
2017-05-09 04:21:13,0.04,0.26,0.00,24.47,26.97,30.29,14.27,48.70,1010.76,2031.93,3407.41,3026.20,3465.04,599.92,589.64,9.19,0000 0000 0000 0000 000000
2017-05-09 04:26:14,0.03,0.26,0.00,24.45,26.97,30.29,14.35,48.66,1010.76,2031.89,3406.56,3025.93,3464.38,599.98,589.72,9.24,0000 0000 0000 0000 000000
2017-05-09 04:31:16,0.02,0.26,0.00,24.48,26.99,30.30,14.24,48.70,1010.76,2031.90,3405.93,3025.20,3463.99,599.92,589.50,9.29,0000 0000 0000 0000 000000
2017-05-09 04:36:17,0.01,0.26,0.00,24.50,27.00,30.31,14.32,48.65,1010.75,2031.79,3405.10,3024.98,3463.28,600.00,589.67,9.34,0000 0000 0000 0000 000000
2017-05-09 04:41:19,0.05,0.26,0.00,24.49,27.00,30.31,14.31,48.72,1010.76,2031.80,3404.47,3024.34,3462.93,600.04,589.61,9.39,0000 0000 0000 0000 000000
2017-05-09 04:46:20,0.02,0.27,0.00,24.42,27.00,30.32,14.30,48.72,1010.76,2031.79,3403.84,3024.00,3462.12,600.27,590.09,9.44,0000 0000 0000 0000 000000
2017-05-09 04:51:21,0.02,0.27,0.00,24.43,27.00,30.33,14.31,48.70,1010.76,2031.71,3403.03,3023.53,3461.78,600.10,589.86,9.49,0000 0000 0000 0000 000000
2017-05-09 04:56:22,0.02,0.27,0.00,24.47,27.00,30.35,14.27,48.58,1010.76,2031.71,3402.28,3023.02,3461.04,600.04,589.74,9.54,0000 0000 0000 0000 000000
2017-05-09 05:01:24,0.01,0.27,0.00,24.44,27.01,30.34,14.30,48.67,1010.76,2031.58,3401.74,3022.64,3460.71,599.59,589.39,9.59,0000 0000 0000 0000 000000
2017-05-09 05:06:25,0.05,0.27,0.00,24.40,27.01,30.36,14.40,48.67,1010.75,2031.74,3401.02,3022.03,3460.03,600.45,590.25,9.64,0000 0000 0000 0000 000000
2017-05-09 05:11:27,0.02,0.27,0.00,24.46,27.02,30.35,14.29,48.67,1010.74,2031.68,3400.29,3021.94,3459.76,599.96,589.66,9.69,0000 0000 0000 0000 000000
2017-05-09 05:16:28,0.03,0.27,0.00,24.39,27.02,30.31,14.31,48.57,1010.74,2031.69,3399.66,3021.17,3459.04,599.84,589.93,9.74,0000 0000 0000 0000 000000
2017-05-09 05:21:29,0.01,0.28,0.00,24.36,27.02,30.27,14.31,48.57,1010.75,2031.54,3398.88,3020.95,3458.39,599.97,589.96,9.79,0000 0000 0000 0000 000000
2017-05-09 05:26:30,0.05,0.28,0.00,24.42,27.02,30.26,14.19,48.49,1010.76,2031.53,3398.07,3020.16,3458.00,600.08,589.85,9.84,0000 0000 0000 0000 000000
2017-05-09 05:31:31,0.05,0.28,0.00,24.42,27.01,30.25,14.31,48.56,1010.76,2031.80,3397.47,3019.99,3457.40,599.90,589.67,9.89,0000 0000 0000 0000 000000
2017-05-09 05:36:33,0.02,0.28,0.00,24.39,27.00,30.22,14.28,48.56,1010.76,2031.70,3396.73,3019.45,3456.96,599.96,589.72,9.94,0000 0000 0000 0000 000000
2017-05-09 05:41:34,0.01,0.28,0.00,24.40,27.00,30.21,14.37,48.68,1010.76,2031.60,3396.01,3019.00,3456.17,599.97,589.76,9.99,0000 0000 0000 0000 000000
2017-05-09 05:46:35,0.03,0.28,0.00,24.38,27.00,30.22,14.39,48.74,1010.76,2031.49,3395.18,3018.53,3455.93,600.31,590.13,10.04,0000 0000 0000 0000 000000
2017-05-09 05:51:37,0.05,0.29,0.00,24.38,27.00,30.23,14.26,48.61,1010.74,2031.78,3394.76,3018.02,3455.22,599.84,589.81,10.09,0000 0000 0000 0000 000000
2017-05-09 05:56:38,0.00,0.29,0.00,24.38,27.00,30.22,14.30,48.63,1010.74,2031.84,3393.99,3017.95,3454.98,599.92,589.95,10.14,0000 0000 0000 0000 000000
2017-05-09 06:01:39,0.06,0.29,0.00,24.38,26.99,30.23,14.37,48.65,1010.76,2031.90,3393.15,3017.24,3454.34,599.96,589.79,10.19,0000 0000 0000 0000 000000
2017-05-09 06:06:41,0.01,0.29,0.00,24.36,26.97,30.20,14.37,48.60,1010.76,2031.91,3392.72,3017.00,3453.98,599.86,589.70,10.24,0000 0000 0000 0000 000000
2017-05-09 06:11:42,0.04,0.29,0.00,24.38,26.97,30.20,14.21,48.66,1010.76,2031.92,3391.94,3016.48,3453.30,599.72,589.58,10.29,0000 0000 0000 0000 000000
2017-05-09 06:16:43,0.03,0.29,0.00,24.25,26.97,30.18,14.28,48.66,1010.76,2031.88,3391.07,3015.88,3452.62,599.87,589.93,10.34,0000 0000 0000 0000 000000
2017-05-09 06:21:44,0.04,0.30,0.00,24.30,26.97,30.18,14.30,48.67,1010.76,2031.84,3390.18,3015.05,3451.80,599.77,589.73,10.39,0000 0000 0000 0000 000000
2017-05-09 06:26:46,0.03,0.30,0.00,24.31,26.95,30.19,14.37,48.58,1010.76,2031.95,3389.70,3014.80,3451.07,600.09,590.07,10.44,0000 0000 0000 0000 000000
2017-05-09 06:31:47,0.03,0.30,0.00,24.30,26.95,30.17,14.33,48.69,1010.76,2031.98,3389.00,3014.07,3450.78,600.13,590.18,10.49,0000 0000 0000 0000 000000
2017-05-09 06:36:48,0.02,0.30,0.00,24.34,26.95,30.17,14.30,48.65,1010.76,2031.98,3388.25,3013.97,3450.05,600.02,589.90,10.54,0000 0000 0000 0000 000000
2017-05-09 06:41:50,0.02,0.30,0.00,24.37,26.94,30.16,14.35,48.58,1010.76,2031.98,3387.96,3013.34,3449.86,599.88,589.69,10.59,0000 0000 0000 0000 000000
2017-05-09 06:46:51,0.03,0.30,0.00,24.37,26.92,30.15,14.26,48.53,1010.76,2031.98,3387.14,3013.01,3449.10,599.99,589.86,10.64,0000 0000 0000 0000 000000
2017-05-09 06:51:52,0.01,0.30,0.00,24.29,26.92,30.15,14.24,48.58,1010.77,2031.99,3386.79,3012.95,3448.98,599.95,590.03,10.69,0000 0000 0000 0000 000000
2017-05-09 06:56:54,0.04,0.31,0.00,24.24,26.92,30.15,14.27,48.67,1010.76,2031.99,3386.04,3012.23,3448.29,599.67,589.81,10.74,0000 0000 0000 0000 000000
2017-05-09 07:01:55,0.01,0.31,0.00,24.33,26.92,30.14,14.43,48.64,1010.76,2031.99,3385.44,3011.98,3447.97,600.42,590.37,10.79,0000 0000 0000 0000 000000
2017-05-09 07:06:56,0.03,0.31,0.00,24.31,26.90,30.14,14.29,48.64,1010.77,2031.99,3384.97,3011.49,3447.32,599.76,589.92,10.84,0000 0000 0000 0000 000000
2017-05-09 07:11:58,0.02,0.31,0.00,24.31,26.90,30.14,14.31,48.53,1010.76,2031.99,3384.21,3011.03,3447.02,600.01,590.20,10.90,0000 0000 0000 0000 000000
2017-05-09 07:16:59,0.02,0.31,0.00,24.34,26.90,30.13,14.16,48.53,1010.77,2031.99,3383.81,3010.94,3446.58,599.41,589.48,10.95,0000 0000 0000 0000 000000
2017-05-09 07:22:01,0.03,0.31,0.00,24.33,26.90,30.13,14.24,48.45,1010.80,2031.99,3383.06,3010.40,3446.01,599.47,589.54,11.00,0000 0000 0000 0000 000000
2017-05-09 07:27:02,0.01,0.31,0.00,24.30,26.89,30.12,14.34,48.65,1010.82,2031.99,3382.65,3010.01,3445.89,600.10,590.08,11.05,0000 0000 0000 0000 000000
2017-05-09 07:32:03,0.03,0.32,0.00,24.30,26.88,30.12,14.32,48.58,1010.93,2031.99,3381.99,3009.76,3445.09,600.12,590.19,11.10,0000 0000 0000 0000 000000
2017-05-09 07:37:04,0.04,0.32,0.00,24.24,26.87,30.11,14.43,48.52,1011.10,2031.99,3381.13,3009.07,3444.46,600.43,590.66,11.15,0000 0000 0000 0000 000000
2017-05-09 07:42:06,0.01,0.32,0.00,24.33,26.87,30.10,14.30,48.48,1011.22,2031.99,3380.54,3008.96,3444.01,599.85,590.07,11.20,0000 0000 0000 0000 000000
2017-05-09 07:47:07,0.03,0.32,0.00,24.27,26.87,30.11,14.40,48.53,1011.23,2031.99,3379.99,3008.33,3443.78,600.22,590.53,11.25,0000 0000 0000 0000 000000
2017-05-09 07:52:08,0.02,0.32,0.00,24.28,26.87,30.10,14.29,48.55,1011.24,2031.99,3379.34,3008.00,3443.07,600.09,590.35,11.30,0000 0000 0000 0000 000000
2017-05-09 07:57:09,0.00,0.32,0.00,24.25,26.86,30.10,14.27,48.57,1011.24,2032.00,3378.95,3007.99,3442.97,599.60,590.14,11.35,0000 0000 0000 0000 000000
2017-05-09 08:02:10,0.05,0.32,0.00,24.26,26.85,30.09,14.25,48.60,1011.24,2032.00,3378.20,3007.47,3442.31,600.03,590.39,11.40,0000 0000 0000 0000 000000
2017-05-09 08:07:11,0.01,0.33,0.00,24.27,26.85,30.09,14.30,48.57,1011.24,2032.00,3377.58,3007.01,3441.97,599.99,590.37,11.45,0000 0000 0000 0000 000000
2017-05-09 08:12:13,0.01,0.33,0.00,24.32,26.85,30.08,14.41,48.54,1011.24,2032.00,3377.01,3006.98,3441.42,600.21,590.50,11.50,0000 0000 0000 0000 000000
2017-05-09 08:17:14,0.04,0.33,0.00,24.26,26.84,30.08,14.35,48.56,1011.25,2032.01,3376.33,3006.34,3441.00,600.01,590.30,11.55,0000 0000 0000 0000 000000
2017-05-09 08:22:15,0.02,0.33,0.00,24.31,26.83,30.08,14.33,48.61,1011.25,2032.01,3375.83,3006.02,3440.61,600.07,590.39,11.60,0000 0000 0000 0000 000000
2017-05-09 08:27:16,0.02,0.33,0.00,24.27,26.82,30.08,14.42,48.61,1011.26,2032.02,3375.06,3005.83,3440.01,600.27,590.64,11.65,0000 0000 0000 0000 000000
2017-05-09 08:32:18,0.03,0.33,0.00,24.25,26.82,30.08,14.41,48.59,1011.26,2032.02,3374.41,3005.14,3439.67,600.22,590.69,11.70,0000 0000 0000 0000 000000
2017-05-09 08:37:19,0.01,0.33,0.00,24.24,26.82,30.08,14.35,48.61,1011.26,2032.08,3373.98,3005.00,3439.02,600.28,590.60,11.75,0000 0000 0000 0000 000000
2017-05-09 08:42:20,0.02,0.33,0.00,24.23,26.82,30.07,14.34,48.55,1011.26,2032.06,3373.28,3004.80,3438.91,599.87,590.31,11.80,0000 0000 0000 0000 000000
2017-05-09 08:47:21,0.04,0.34,0.00,24.26,26.80,30.07,14.34,48.58,1011.28,2032.15,3372.94,3004.09,3438.16,599.93,590.31,11.85,0000 0000 0000 0000 000000
2017-05-09 08:52:23,0.01,0.34,0.00,24.30,26.80,30.07,14.34,48.57,1011.27,2032.11,3372.15,3004.00,3438.00,600.11,590.40,11.90,0000 0000 0000 0000 000000
2017-05-09 08:57:24,0.03,0.34,0.00,24.29,26.80,30.07,14.33,48.56,1011.27,2032.17,3371.72,3003.79,3437.49,600.25,590.53,11.95,0000 0000 0000 0000 000000
2017-05-09 09:02:26,0.05,0.34,0.00,24.27,26.80,30.06,14.37,48.52,1011.26,2032.41,3371.02,3003.11,3437.03,600.07,590.37,12.00,0000 0000 0000 0000 000000
2017-05-09 09:07:27,0.03,0.34,0.00,24.20,26.80,30.07,14.25,48.51,1011.27,2032.35,3370.26,3002.97,3436.74,599.72,590.12,12.05,0000 0000 0000 0000 000000
2017-05-09 09:12:28,0.02,0.34,0.00,24.28,26.79,30.06,14.31,48.50,1011.28,2032.33,3369.75,3002.43,3436.05,600.20,590.39,12.10,0000 0000 0000 0000 000000
2017-05-09 09:17:29,0.06,0.35,0.00,24.25,26.78,30.06,14.25,48.48,1011.36,2032.68,3369.03,3002.02,3435.92,599.95,590.21,12.15,0000 0000 0000 0000 000000
2017-05-09 09:22:31,0.03,0.35,0.00,24.26,26.77,30.06,14.34,48.56,1011.36,2032.74,3368.30,3001.88,3435.14,599.98,590.39,12.20,0000 0000 0000 0000 000000
2017-05-09 09:27:32,0.02,0.35,0.00,24.26,26.77,30.05,14.40,48.53,1011.53,2032.71,3367.80,3001.14,3434.91,600.15,590.66,12.25,0000 0000 0000 0000 000000
2017-05-09 09:32:34,0.04,0.35,0.00,24.26,26.77,30.06,14.38,48.67,1011.69,2032.79,3367.05,3000.99,3434.13,600.09,590.55,12.30,0000 0000 0000 0000 000000
2017-05-09 09:37:35,0.02,0.35,0.00,24.27,26.77,30.06,14.38,48.65,1011.72,2032.84,3366.58,3000.62,3433.98,600.25,590.87,12.35,0000 0000 0000 0000 000000
2017-05-09 09:42:36,0.02,0.36,0.00,24.30,26.77,30.05,14.32,48.60,1011.73,2032.80,3365.97,3000.03,3433.30,599.97,590.67,12.40,0000 0000 0000 0000 000000
2017-05-09 09:47:38,0.02,0.36,0.00,24.36,26.77,30.05,14.40,48.58,1011.73,2032.81,3365.20,2999.92,3432.99,600.35,590.72,12.45,0000 0000 0000 0000 000000
2017-05-09 09:52:39,0.04,0.36,0.00,24.23,26.77,30.05,14.33,48.67,1011.73,2032.80,3364.65,2999.20,3432.30,599.85,590.55,12.50,0000 0000 0000 0000 000000
2017-05-09 09:57:40,0.02,0.36,0.00,24.23,26.77,30.04,14.36,48.56,1011.73,2032.89,3363.99,2998.98,3431.99,599.86,590.58,12.55,0000 0000 0000 0000 000000
2017-05-09 10:02:42,0.04,0.36,0.00,24.25,26.77,30.05,14.33,48.53,1011.73,2032.83,3363.16,2998.36,3431.35,600.16,590.81,12.60,0000 0000 0000 0000 000000
2017-05-09 10:07:43,0.01,0.36,0.00,24.27,26.77,30.05,14.37,48.60,1011.73,2032.94,3362.74,2998.01,3430.99,600.24,590.95,12.65,0000 0000 0000 0000 000000
2017-05-09 10:12:44,0.03,0.36,0.00,24.27,26.77,30.05,14.41,48.55,1011.73,2032.85,3361.90,2997.66,3430.32,599.84,590.45,12.70,0000 0000 0000 0000 000000
2017-05-09 10:17:46,0.02,0.37,0.00,24.29,26.77,30.05,14.31,48.54,1011.73,2032.78,3361.09,2997.02,3429.71,600.15,590.76,12.75,0000 0000 0000 0000 000000
2017-05-09 10:22:47,0.05,0.37,0.00,24.35,26.77,30.05,14.33,48.62,1011.73,2032.86,3360.42,2996.61,3429.03,599.99,590.51,12.80,0000 0000 0000 0000 000000
2017-05-09 10:27:48,0.01,0.37,0.00,24.27,26.77,30.04,14.44,48.63,1011.73,2032.86,3359.84,2996.02,3428.78,600.37,591.02,12.85,0000 0000 0000 0000 000000
2017-05-09 10:32:50,0.02,0.37,0.00,24.26,26.76,30.05,14.35,48.58,1011.74,2032.94,3359.07,2995.98,3428.06,599.79,590.61,12.90,0000 0000 0000 0000 000000
2017-05-09 10:37:51,0.03,0.37,0.00,24.33,26.76,30.05,14.29,48.45,1011.75,2032.98,3358.58,2995.41,3427.94,599.64,590.16,12.95,0000 0000 0000 0000 000000
2017-05-09 10:42:52,0.02,0.37,0.00,24.25,26.76,30.06,14.38,48.53,1011.76,2032.94,3357.87,2995.00,3427.16,600.14,590.83,13.00,0000 0000 0000 0000 000000
2017-05-09 10:47:53,0.03,0.38,0.00,24.37,26.76,30.05,14.27,48.51,1011.78,2032.97,3357.05,2994.59,3426.75,599.61,590.14,13.05,0000 0000 0000 0000 000000
2017-05-09 10:52:55,0.03,0.38,0.00,24.31,26.77,30.05,14.20,48.46,1011.84,2032.95,3356.26,2994.01,3426.03,599.74,590.40,13.10,0000 0000 0000 0000 000000
2017-05-09 10:57:56,0.03,0.38,0.00,24.20,26.76,30.06,14.42,48.58,1011.92,2032.96,3355.65,2993.82,3425.51,600.04,591.02,13.16,0000 0000 0000 0000 000000
2017-05-09 11:02:57,0.02,0.38,0.00,24.31,26.76,30.05,14.19,48.47,1011.98,2032.94,3354.94,2993.10,3424.99,599.41,590.08,13.21,0000 0000 0000 0000 000000
2017-05-09 11:07:58,0.03,0.38,0.00,24.42,26.76,30.05,14.31,48.51,1012.03,2032.93,3354.11,2992.91,3424.26,599.90,590.41,13.26,0000 0000 0000 0000 000000
2017-05-09 11:12:59,0.03,0.38,0.00,24.29,26.77,30.06,14.33,48.52,1012.10,2032.90,3353.43,2992.16,3423.85,599.72,590.52,13.31,0000 0000 0000 0000 000000
2017-05-09 11:18:01,0.02,0.38,0.00,24.35,26.77,30.05,14.30,48.49,1012.19,2032.83,3352.70,2991.92,3423.06,600.00,590.79,13.36,0000 0000 0000 0000 000000
2017-05-09 11:23:02,0.04,0.39,0.00,24.37,26.77,30.06,14.38,48.52,1012.11,2032.92,3352.02,2991.31,3422.76,600.01,590.72,13.41,0000 0000 0000 0000 000000
2017-05-09 11:28:03,0.01,0.39,0.00,24.29,26.77,30.06,14.34,48.53,1012.09,2032.83,3351.30,2990.99,3422.03,600.24,590.95,13.46,0000 0000 0000 0000 000000
2017-05-09 11:33:05,0.04,0.39,0.00,24.30,26.77,30.07,14.28,48.48,1011.97,2032.85,3350.77,2990.47,3421.79,599.98,590.70,13.51,0000 0000 0000 0000 000000
2017-05-09 11:38:06,0.02,0.39,0.00,24.32,26.77,30.07,14.38,48.47,1012.14,2032.86,3350.03,2990.02,3421.05,599.99,590.62,13.56,0000 0000 0000 0000 000000
2017-05-09 11:43:07,0.03,0.39,0.00,24.34,26.77,30.08,14.35,48.44,1012.20,2032.88,3349.27,2989.79,3420.70,599.96,590.74,13.61,0000 0000 0000 0000 000000
2017-05-09 11:48:09,0.03,0.39,0.00,24.35,26.77,30.08,14.30,48.52,1012.22,2032.88,3348.68,2989.05,3420.04,599.97,590.83,13.66,0000 0000 0000 0000 000000
2017-05-09 11:53:10,0.00,0.40,0.00,24.37,26.77,30.07,14.32,48.49,1012.21,2032.84,3348.00,2988.96,3419.73,599.92,590.64,13.71,0000 0000 0000 0000 000000
2017-05-09 11:58:11,0.04,0.40,0.00,24.26,26.77,30.08,14.37,48.53,1012.22,2032.90,3347.21,2988.33,3419.04,600.00,591.04,13.76,0000 0000 0000 0000 000000
2017-05-09 12:03:13,-0.00,0.40,0.00,24.32,26.77,30.08,14.35,48.48,1012.22,2032.73,3346.59,2988.00,3418.61,600.12,590.94,13.81,0000 0000 0000 0000 000000
2017-05-09 12:08:14,0.06,0.40,0.00,24.36,26.77,30.08,14.30,48.42,1012.22,2032.83,3345.97,2987.53,3418.02,599.45,590.28,13.86,0000 0000 0000 0000 000000
2017-05-09 12:13:15,0.02,0.40,0.00,24.32,26.77,30.08,14.35,48.40,1012.22,2032.83,3345.20,2987.02,3417.58,600.15,590.98,13.91,0000 0000 0000 0000 000000
2017-05-09 12:18:17,0.03,0.40,0.00,24.30,26.77,30.09,14.29,48.38,1012.22,2032.87,3344.52,2986.76,3417.01,599.87,590.75,13.96,0000 0000 0000 0000 000000
2017-05-09 12:23:18,0.02,0.40,0.00,24.34,26.77,30.09,14.41,48.43,1012.22,2032.80,3343.92,2986.05,3416.52,600.20,590.85,14.01,0000 0000 0000 0000 000000
2017-05-09 12:28:19,0.02,0.41,0.00,24.32,26.77,30.08,14.39,48.42,1012.22,2032.85,3343.14,2985.92,3416.01,600.16,590.94,14.06,0000 0000 0000 0000 000000
2017-05-09 12:33:21,0.05,0.41,0.00,24.35,26.77,30.10,14.36,48.42,1012.22,2032.92,3342.54,2985.16,3415.62,600.18,590.95,14.11,0000 0000 0000 0000 000000
2017-05-09 12:38:22,0.01,0.41,0.00,24.32,26.77,30.09,14.34,48.38,1012.22,2032.91,3341.90,2985.00,3415.02,599.86,590.67,14.16,0000 0000 0000 0000 000000
2017-05-09 12:43:23,0.04,0.41,0.00,24.29,26.77,30.09,14.27,48.26,1012.23,2032.85,3341.08,2984.52,3414.48,599.85,590.73,14.21,0000 0000 0000 0000 000000
2017-05-09 12:48:25,0.02,0.41,0.00,24.36,26.77,30.10,14.33,48.43,1012.23,2032.81,3340.45,2984.05,3413.99,600.07,590.80,14.26,0000 0000 0000 0000 000000
2017-05-09 12:53:26,0.02,0.41,0.00,24.32,26.77,30.09,14.35,48.34,1012.25,2032.76,3339.87,2983.67,3413.34,600.04,590.88,14.31,0000 0000 0000 0000 000000